Location: Bailleul
(50.3375°N, 2.8513°E)
Time: 08:56:50
(UTC+00:00)

Cosmos 2333 Rocket - Pass Details

Date: 16 June 2021
Orbit: 841 x 861 km, 70.8° (Epoch: 01 August)

Event Time Altitude Azimuth Distance (km) Brightness Sun altitude
Exits shadow 21:09:02 - 159° (SSE) 2,584 4.1 -8.2°
Reaches altitude 10° 21:09:20 10° 157° (SSE) 2,489 4.0 -8.2°
Maximum altitude 21:13:57 26° 103° (ESE) 1,639 3.3 -8.7°
Drops below altitude 10° 21:18:33 10° 49° (NE) 2,494 4.7 -9.1°
Sets 21:21:22 0° 38° (NE) 3,432 5.6 -9.3°
